Regional Weather Roundup
Issued by NWS

Home | Current Version | Previous Version | Text Only | Print | Product List | Glossary Off
Versions: 1 2 3 4 5 6 7 8 9 10 11 12 13 14 15 16 17 18 19 20 21 22 23 24 25 26 27

000
ASUS45 KSLC 220210
RWRUT

UTAH REGIONAL WEATHER ROUNDUP
NATIONAL WEATHER SERVICE SALT LAKE CITY UT
800 PM MDT TUE MAR 21 2017

UTZ001>011-023>025-220300-

NORTHERN UTAH

CITY           SKY/WX    TMP DP  RH WIND       PRES   REMARKS
BRIGHAM CITY     N/A     68  28  23 S17G26    29.80S
HILL AFB       PTCLDY    67  30  25 S17       29.84R
LOGAN          MOCLDY    65  35  33 SE8       29.81F
OGDEN          MOCLDY    68  31  25 S17       29.81S
SALT LAKE CITY MOCLDY    71  27  19 S26G35    29.82R
WENDOVER       CLOUDY    68  30  24 SW18      29.81R
HEBER CITY     CLOUDY    61  28  29 SE12      29.92S

$$

UTZ011>015-024>027-220300-

CENTRAL/NORTHEAST UTAH

CITY           SKY/WX    TMP DP  RH WIND       PRES   REMARKS
PROVO AIRPORT  CLOUDY    65  38  36 SW14      29.90R
MOAB/CANYONLAN CLEAR     64  22  20 SW6       29.94S
DELTA          PTCLDY    63  28  27 S22G32    29.93R
PRICE          MOCLDY    60  28  29 S9        29.98S
ROOSEVELT      MOCLDY    59  34  38 W6        29.98S
VERNAL         CLOUDY    61  29  29 SW6       29.96S

$$

UTZ013>016-019>022-027-220300-

SOUTHERN UTAH

CITY           SKY/WX    TMP DP  RH WIND       PRES   REMARKS
BRYCE CANYON   PTCLDY    52  30  43 S8        30.13S
CEDAR CITY     CLOUDY    61  27  27 S15       30.00S
MILFORD        PTCLDY    64  26  23 SW18G26   29.95R
ST GEORGE      MOCLDY    76  29  17 W5        29.91R
HANKSVILLE     PTCLDY    70  27  19 S14       29.96S
BLANDING       CLEAR     59  19  20 CALM      30.13F

$$

REGIONAL REPORTS     COLORADO/ARIZONA

CITY           SKY/WX    TMP DP  RH WIND       PRES   REMARKS
CRAIG, CO      MOCLDY    60  23  24 SW12      30.04R
GRAND JUNCTION PTCLDY    69  24  18 SW10      29.98R
RIFLE, CO      MOCLDY    64  21  19 SE13      30.03R
MONTROSE, CO   CLOUDY    61  30  31 SE7       30.11S
CORTEZ, CO     CLEAR     60  28  29 E5        30.09S
COLORADO CITY  MOCLDY    64  32  29 W7        30.04R
PAGE, AZ       CLEAR     70  23  17 E3        29.94S
GRAND CANYON   MOCLDY    58  20  22 SW13      30.13F
KINGMAN, AZ    CLOUDY    69  12  11 SW12      29.99R
FLAGSTAFF, AZ  MOCLDY    56  28  34 SW14      30.16S

$$

REGIONAL REPORTS    NEVADA/IDAHO/WYOMING

CITY           SKY/WX    TMP DP  RH WIND       PRES   REMARKS
LAS VEGAS, NV  MOCLDY    74  41  30 W18G24    29.88R
ELY, NY        LGT RAIN  47  42  83 SW9G22    29.99R
ELKO, NV       CLOUDY    48  41  76 E6        29.90F
POCATELLO, ID  MOCLDY    63  33  32 S12       29.79F
BURLEY, ID     LGT RAIN  59  40  49 S20G35    29.82R
FORT BRIDGER,    N/A     53  30  41 S10       30.04R
EVANSTON, WY   CLOUDY    49  27  42 S10       29.99S
ROCK SPRINGS,  CLOUDY    55  30  38 SE3       30.01F
KEMMERER, WY     N/A     50  28  43 SE5       30.02S

$$




USA.gov is the U.S. government's official web portal to all federal, state and local government web resources and services.